Flag for Norway Weather past 2 weeks in Hamar, Norway

Now
22 °F

Cold.


Feels Like: 22 °F
Forecast: 20 / 35 °F
Wind: No wind

Location: Haugedalshogda

Current Time: Mar 4, 2015 at 12:34:46 AM

Latest Report: Mar 3, 2015 at 11:00 PM


Visibility: N/A

Pressure: 29.62 "Hg

Humidity: 95%

Dew point: 21 °F

Location of HamarLocation

Historic Weather in Hamar — Graph

°F

Hamar temperature yesterday

Maximum temperature yesterday: 40 °F (at 2:00 PM)
Minimum temperature yesterday: 22 °F (at 11:00 PM)
Average temperature yesterday: 30 °F

Past Weeks' High & Low Weather Summary

 TemperatureHumidityPressure
High45 °F (Feb 19, 12:00 PM)96% (Feb 21, 8:00 AM)30.26 "Hg (Feb 21, 8:00 AM)
Low6 °F (Feb 22, 11:00 PM)47% (Feb 20, 1:00 PM)29.00 "Hg (Feb 23, 3:00 PM)
Average31 °F87%29.52 "Hg
* Reported Feb 16 11:00 PM — Mar 3 11:00 PM, Hamar, Weather by CustomWeather, © 2015

Note: Actual official high and low records may vary slightly from our data, if they occured in-between our weather recording intervals... More about our weather records

Advertising

Hamar weather history for previous 24 hours

 ConditionsComfort  
Time TempWeatherWind HumidityBarometerVisibility
11:00 PM
Tue, Mar 3
22 °FCold.No wind95%29.62 "HgN/A
10:00 PM23 °FCold.1 mph94%29.61 "HgN/A
9:00 PM26 °FChilly.1 mph94%29.59 "HgN/A
8:00 PM28 °FChilly.1 mph91%29.58 "HgN/A
7:00 PM29 °FChilly.2 mph86%29.57 "HgN/A
6:00 PM32 °FChilly.1 mph85%29.54 "HgN/A
5:00 PM33 °FChilly.2 mph84%29.53 "HgN/A
4:00 PM34 °FChilly.2 mph82%29.50 "HgN/A
3:00 PM33 °FChilly.2 mph79%29.50 "HgN/A
2:00 PM40 °FQuite cool.1 mph59%29.50 "HgN/A
1:00 PM39 °FChilly.1 mph59%29.47 "HgN/A
12:00 PM33 °FChilly.2 mph77%29.50 "HgN/A
11:00 AM30 °FChilly.3 mph85%29.50 "HgN/A
10:00 AM29 °FChilly.3 mph85%29.50 "HgN/A
9:00 AM28 °FChilly.5 mph86%29.47 "HgN/A
8:00 AM27 °FChilly.3 mph88%29.47 "HgN/A
7:00 AM28 °FChilly.5 mph87%29.44 "HgN/A
6:00 AM28 °FChilly.6 mph89%29.44 "HgN/A
5:00 AM29 °FChilly.5 mph90%29.44 "HgN/A
4:00 AM29 °FChilly.5 mph93%29.41 "HgN/A
3:00 AM30 °FChilly.5 mph93%29.41 "HgN/A
2:00 AM31 °FChilly.2 mph96%29.38 "HgN/A
1:00 AM31 °FChilly.1 mph96%29.38 "HgN/A
12:00 AM30 °FChilly.No wind96%29.38 "HgN/A
Weather by CustomWeather, © 2015

See weather overviewHow to use our weather pages